Regional Weather Roundup
Issued by NWS

Current Version | Previous Version | Text Only | Print | Product List | Glossary On
Versions: 1 2 3 4 5 6 7 8 9 10 11 12 13 14 15 16 17 18 19 20 21 22 23 24 25 26 27 28 29 30 31 32 33 34 35 36 37 38 39 40 41 42 43 44 45 46 47 48 49 50
000
ASUS44 KMEG 201800
RWRTN
TENNESSEE HOURLY STATE WEATHER ROUNDUP
NATIONAL WEATHER SERVICE MEMPHIS TN
100 PM CDT SAT SEP 20 2014

TNZ002-004-019-021-049-052-054-088>092-201900-
WEST TENNESSEE

CITY           SKY/WX    TMP DP  RH WIND       PRES   REMARKS
MEMPHIS INTL   MOSUNNY   88  68  51 S6        30.06F HX  91
NWS MEMPHIS      N/A     87 N/A N/A MISG        N/A
JACKSON        SUNNY     83  68  60 VRB6      30.08F
DYERSBURG      MOSUNNY   86  64  48 W7        30.06F
UNION CITY     SUNNY     82  70  65 SW6       30.05F
PARIS          PTSUNNY   81  66  61 S8        30.08F
SAVANNAH       SUNNY     82  68  61 VRB6      30.09F
$$

TNZ008-025-027-028-033-062-065-066-201900-
NORTH MIDDLE TENNESSEE

CITY           SKY/WX    TMP DP  RH WIND       PRES   REMARKS
NASHVILLE      MOSUNNY   85  63  47 S9        30.09F
CLARKSVILLE    MOSUNNY   83  67  58 SW9       30.07F
COOKEVILLE     SUNNY     82  64  54 SW3       30.11F
CROSSVILLE     SUNNY     77  58  51 SW3       30.16F
$$

TNZ061-075-076-078-094-096-097-201900-
SOUTH MIDDLE TENNESSEE

CITY           SKY/WX    TMP DP  RH WIND       PRES   REMARKS
WINCHESTER     SUNNY     82  63  51 S8        30.12F
SHELBYVILLE    SUNNY     84  64  51 SW9       30.11F
$$

TNZ017-018-042-046-047-201900-
NORTHEAST TENNESSEE

CITY           SKY/WX    TMP DP  RH WIND       PRES   REMARKS
TRI CITIES     SUNNY     80  51  36 S6        30.16F
ELIZABETHTON   CLEAR     79  54  41 VRB3      30.15F
$$

TNZ012-013-036-069-073-074-201900-
CENTRAL EAST TENNESSEE

CITY           SKY/WX    TMP DP  RH WIND       PRES   REMARKS
KNOXVILLE      MOSUNNY   81  59  47 VRB3      30.11F
OAK RIDGE      SUNNY     81  59  47 VRB5      30.14F
GATLINBURG     CLEAR     82  59  44 VRB3      30.11F
$$

TNZ083-085-099-201900-
SOUTHEAST TENNESSEE

CITY           SKY/WX    TMP DP  RH WIND       PRES   REMARKS
CHATTANOOGA    MOSUNNY   81  61  50 SE6       30.12F
$$

SKY/WX REPORTED AS FAIR MEANS FEW OR NO CLOUDS BELOW
12 THOUSAND FEET.




USA.gov is the U.S. government's official web portal to all federal, state and local government web resources and services.